Regional Weather Roundup
Issued by NWS

Home | Current Version | Previous Version | Text Only | Print | Product List | Glossary Off
Versions: 1 2 3 4 5 6 7 8 9 10 11 12 13 14 15 16 17 18 19 20 21 22 23 24 25 26 27 28 29 30 31 32 33 34 35 36 37 38 39 40 41 42 43 44 45 46 47 48 49 50

000
ASUS45 KSLC 272210
RWRUT

UTAH REGIONAL WEATHER ROUNDUP
NATIONAL WEATHER SERVICE SALT LAKE CITY UT
300 PM MST THU NOV 27 2014

UTZ001>011-023>025-272300-

NORTHERN UTAH

CITY           SKY/WX    TMP DP  RH WIND       PRES   REMARKS
BRIGHAM CITY   CLOUDY    55  31  40 CALM      30.22F
HILL AFB       CLOUDY    57  23  26 S10       30.22F
LOGAN          SUNNY     48  36  63 SE3       30.21F
OGDEN          CLOUDY    59  24  26 S6        30.21F
PROVO AIRPORT  CLOUDY    46  34  61 CALM      30.25F
SALT LAKE CITY CLOUDY    57  26  30 SE6       30.20F
VERNAL         CLOUDY    50  24  36 CALM      30.28F
WENDOVER       PTSUNNY   52  27  37 E8        30.20F
HEBER CITY     CLOUDY    45  32  61 CALM      30.26F
WEST JORDAN    SUNNY     57  30  35 S14       30.22F

$$

UTZ012>022-026-027-272300-

SOUTHERN/CENTRAL UTAH

CITY           SKY/WX    TMP DP  RH WIND       PRES   REMARKS
BLANDING       MOSUNNY   52  23  32 CALM      30.44S
BRYCE CANYON   PTSUNNY   51  13  21 SE12      30.39F
CEDAR CITY     CLOUDY    61  13  15 SW9       30.26F
DELTA          CLOUDY    53  24  32 CALM      30.25F
MILFORD        CLOUDY    57  22  25 S12       30.25F
MOAB/CYNLANDS  SUNNY     55  24  30 CALM      30.31F
PRICE          PTSUNNY   50  24  36 S6        30.34F
ST GEORGE      CLOUDY    55  19  24 CALM      30.25F
KANAB          MOSUNNY   61  18  18 S3        30.33F

$$

REGIONAL REPORTS     COLORADO/ARIZONA

CITY           SKY/WX    TMP DP  RH WIND       PRES   REMARKS
CRAIG, CO      CLOUDY    45  28  51 E12       30.28F
GRAND JUNCTION MOSUNNY   52  27  38 CALM      30.33F
RIFLE          PTSUNNY   47  27  45 CALM      30.34F
MONTROSE       SUNNY     55  22  27 CALM      30.35F
CORTEZ         SUNNY     55  23  28 SW13      30.37S
PAGE, AZ       PTSUNNY   57  19  22 CALM      30.32F
GRAND CANYON   MOSUNNY   66   2   8 W3        30.36F
KINGMAN        PTSUNNY   75  12   9 W3        30.20F
FLAGSTAFF      SUNNY     66  12  12 CALM      30.38F

$$

REGIONAL REPORTS    NEVADA/IDAHO/WYOMING

CITY           SKY/WX    TMP DP  RH WIND       PRES   REMARKS
LAS VEGAS, NV  CLOUDY    64  20  18 S7        30.16F
ELY            PTSUNNY   61  11  14 CALM      30.28F
ELKO           CLOUDY    59  32  36 CALM      30.19F
POCATELLO, ID  MOSUNNY   56  28  34 S10       30.15F
BURLEY         MOSUNNY   64  32  30 SW12      30.11F
EVANSTON, WY   PTSUNNY   51  22  31 SW12      30.28F
ROCK SPRINGS   PTSUNNY   49  22  34 W17       30.25S

$$


USA.gov is the U.S. government's official web portal to all federal, state and local government web resources and services.